Location: Hyderabad
(17.3833°N, 78.4667°E)
Time: 01:33:19
(UTC+05:30)

Daily predictions for brighter satellites

Satellite Brightness Start Highest point End
(mag) Time Altitude Azimuth Time Altitude Azimuth Time Altitude Azimuth
CZ-3C R/B 4.4 02:45:39 53° E 02:45:39 53° E 03:23:13 10° ESE
CZ-3 R/B 3.9 02:36:27 10° WNW 03:32:49 77° NNE 03:43:17 10° ESE
CENTAUR R/B 4.4 04:12:35 26° S 04:12:35 26° S 04:16:01 10° S
Aurora 2 Rocket 4.1 04:18:59 84° N 04:19:04 84° NNE 04:27:03 10° ESE
Intelsat 5-3 Rocket 4.3 04:19:31 61° NNE 04:19:31 61° NNE 04:34:14 10° E
Milstar 3 Cent rocket 3.9 04:18:43 29° SW 04:25:45 57° SSE 04:32:43 10° E
Cosmos 968 Rocket 4.5 04:25:07 10° S 04:30:53 43° ENE 04:35:06 10° NNE
SWIFT 4.3 04:41:52 24° ENE 04:41:52 24° ENE 04:43:44 10° ENE
Cosmos 2333 Rocket 2.6 04:46:02 49° NNE 04:47:20 62° ENE 04:52:58 10° SSE
Cosmos 1763 Rocket 4.3 04:51:31 39° S 04:51:31 39° S 04:54:41 10° S
NOAA 6 4.3 04:50:01 10° NNE 04:55:11 68° ESE 05:00:19 10° S
Cosmos 1842 Rocket 4.2 04:53:26 10° S 04:57:38 54° E 05:01:51 10° NNE
Cosmos 2219 Rocket 2.0 05:00:45 70° W 05:00:51 71° WSW 05:06:24 10° S
Cosmos 1725 Rocket 4.1 05:02:12 10° SSW 05:14:44 - N 05:07:45 49° W
Cosmos 540 Rocket 4.2 05:06:27 16° N 05:10:26 51° ENE 05:15:22 10° SSE
Cosmos 2227 4.3 05:06:28 10° S 05:12:03 76° ESE 05:17:39 10° NNE
USA 116 4.2 05:08:09 10° S 05:13:26 83° W 05:15:41 33° NNW
Cosmos 332 Rocket 3.9 05:13:44 55° WSW 05:13:44 55° WSW 05:18:21 10° S
Delta 128 3.8 05:16:12 52° W 05:17:22 71° SSW 05:22:09 10° ESE
Cosmos 1674 2.6 05:19:05 51° N 05:19:59 89° E 05:23:49 10° S
Gbstr 26 Del rocket 3.6 05:25:24 10° SSW 05:29:54 72° SE 05:35:32 10° NE
IUS-13 SRM-1 3.3 05:31:28 17° NNE 05:31:28 17° NNE 05:32:59 10° ENE
Aureole 1 4.1 05:28:19 10° S 05:31:21 77° ESE 05:34:21 10° NNE
Cosmos 2237 Rocket 2.1 05:28:02 23° NNW 05:31:33 65° WSW 05:37:09 10° S
SL-16 R/B 3.1 05:30:41 10° N 05:36:07 48° ENE 05:41:33 10° SE
Mugunghwa Rocket 4.0 05:33:00 28° WNW 05:36:54 82° SSW 05:43:22 10° ESE
IUS-9 SRM-1 3.8 05:35:35 25° NW 05:37:03 29° NNW 05:39:46 10° NE
CZ-3 Stage 3 3.6 05:36:54 15° NNW 05:40:02 28° NNE 05:52:07 10° E
Cosmos 371 Rocket 3.9 05:42:13 27° WNW 05:43:49 33° W 05:48:09 10° SSW
CZ-4 R/B 3.5 05:42:27 10° NE 05:46:06 31° E 05:49:46 10° SSE
SKYMED 2 3.6 05:43:54 10° SSE 05:48:14 80° ENE 05:52:33 10° N
Meteor 1-16 Rocket 4.2 05:42:56 10° SSW 05:48:20 52° W 05:53:33 10° N
USA 229 DEB 4.2 05:42:49 10° NNW 05:49:57 65° ENE 05:57:09 10° SE
USA 229 4.2 05:42:55 10° NNW 05:50:03 64° ENE 05:57:14 10° SE
ASTRO F (AKARI) 4.1 05:47:20 10° S 05:50:28 80° WSW 05:53:43 10° NNW
Thor Agena Rocket 4.3 05:50:32 10° SSW 05:55:09 32° W 05:59:50 10° NW
Ariane Rocket 3.0 05:50:29 10° N 05:55:29 59° WNW 06:00:29 10° SSW
Tiangong 1 3.1 05:55:57 13° SW 05:56:20 13° SW 05:57:50 10° SSW
Cosmos 1328 3.7 05:58:59 10° N 06:02:56 67° W 06:06:54 10° S
Aureole 2 Rocket 3.1 06:01:57 10° NNW 06:05:56 45° W 06:09:39 10° S
YAOGAN 1 4.3 06:02:38 10° NNE 06:06:39 38° E 06:10:40 10° SSE
CZ-2C R/B 3.0 06:02:52 10° NNE 06:07:21 58° E 06:11:52 10° S
Cosmos 2221 2.6 06:03:21 10° SSW 06:07:35 52° W 06:11:48 10° N
Cosmos 1461 4.0 06:10:30 12° WNW 06:13:21 24° WSW 06:16:45 10° SSW
ASTRO E2 3.3 06:09:27 10° SW 06:13:23 57° SSE 06:17:19 10° ENE
Delta 7925 Rocket 4.2 06:08:07 12° WNW 06:15:37 80° SSW 06:21:43 10° ESE
Meteor 2-1 Rocket 4.4 06:10:21 10° SSW 06:15:37 47° W 06:21:01 10° N
Cosmos 2034 Rocket 3.9 06:11:23 10° S 06:17:31 76° W 06:23:42 10° N
PAYLOAD A 4.0 06:16:33 10° N 06:21:18 54° WNW 06:25:54 10° SSW
SWIFT 2.4 06:17:33 10° WNW 06:21:45 69° N 06:25:56 10° E
IRS-1A Rocket 4.3 06:16:04 10° N 06:21:50 67° WNW 06:27:30 10° SSW
ATLAS 3B CENTAUR R/B 3.5 06:17:06 10° W 06:22:46 63° NNW 06:39:30 10° ENE
Cosmos 2058 2.8 06:18:52 10° N 06:22:58 74° W 06:27:07 10° S
Atlas 2A Centaur Rocket 3.0 06:19:55 10° WNW 06:23:11 19° NNW 06:25:00 10° NNE
Cosmos 304 Rocket 4.2 06:25:20 10° NNW 06:29:49 41° WSW 06:34:16 10° S
Cosmos 1703 3.7 06:26:48 10° N 06:30:42 69° E 06:34:37 10° S
Cosmos 2263 Rocket 2.2 06:25:36 10° SSW 06:31:12 71° WNW 06:36:52 10° N
